This is the latest recevied weather packets stored in our database for station/object AE5TC. If no packets are shown the sender has not sent any weather packets the latest 10 day(s).
| Time | Temp. | Humidity | Pressure | Rain* | Wind** | Luminosity | Snow |
|---|---|---|---|---|---|---|---|
| 1777567857 | 30° C | 67% | 1011.3 hPa | 0 mm | - | 810 W/m² | - |
| 1777567553 | 28.89° C | 66% | 1011.7 hPa | 0 mm | - | 819 W/m² | - |
| 1777567250 | 28.89° C | 69% | 1011.5 hPa | 0 mm | - | 822 W/m² | - |
| 1777566949 | 29.44° C | 69% | 1011.6 hPa | 0 mm | - | 815 W/m² | - |
| 1777566646 | 30° C | 70% | 1011.5 hPa | 0 mm | - | 744 W/m² | - |
| 1777566344 | 28.89° C | 70% | 1011.6 hPa | 0 mm | - | 807 W/m² | - |
| 1777566041 | 28.33° C | 74% | 1011.6 hPa | 0 mm | - | 569 W/m² | - |
| 1777565736 | 28.33° C | 75% | 1011.7 hPa | 0 mm | - | 797 W/m² | - |
| 1777565433 | 27.78° C | 78% | 1011.9 hPa | 0 mm | - | 743 W/m² | - |
| 1777565129 | 27.78° C | 77% | 1011.8 hPa | 0 mm | - | 445 W/m² | - |
| 1777564820 | 28.89° C | 75% | 1011.8 hPa | 0 mm | - | 749 W/m² | - |
| 1777564515 | 28.89° C | 75% | 1011.8 hPa | 0 mm | - | 714 W/m² | - |
| 1777564210 | 28.33° C | 76% | 1011.8 hPa | 0 mm | - | 714 W/m² | - |
| 1777563907 | 28.33° C | 77% | 1011.7 hPa | 0 mm | - | 715 W/m² | - |
| 1777563602 | 28.89° C | 76% | 1011.9 hPa | 0 mm | - | 693 W/m² | - |
| 1777563302 | 27.78° C | 80% | 1011.7 hPa | 0 mm | - | 669 W/m² | - |
| 1777562999 | 27.78° C | 81% | 1011.5 hPa | 0 mm | - | 662 W/m² | - |
| 1777562694 | 28.33° C | 80% | 1011.3 hPa | 0 mm | - | 655 W/m² | - |
| 1777562388 | 27.78° C | 82% | 1011.5 hPa | 0 mm | - | 648 W/m² | - |
| 1777562084 | 28.33° C | 81% | 1011.6 hPa | 0 mm | - | 648 W/m² | - |
| 1777561781 | 27.78° C | 84% | 1011.2 hPa | 0 mm | - | 654 W/m² | - |
| 1777561478 | 27.22° C | 86% | 1011.4 hPa | 0 mm | - | 630 W/m² | - |
| 1777561173 | 26.67° C | 88% | 1011.2 hPa | 0 mm | - | 687 W/m² | - |
| 1777560868 | 26.67° C | 90% | 1011.3 hPa | 0 mm | - | 296 W/m² | - |
| 1777560566 | 26.11° C | 90% | 1011.4 hPa | 0 mm | - | 315 W/m² | - |
* Rain latest hour (hover to see other rain measurements)
** Current wind speed in m/s (hover to see current wind gust speed)